Location: Barnston
(51.8500°N, 0.4000°E)
Time: 18:44:41
(UTC+00:00)

SJ 16-02 - Pass Details

Date: 26 September 2023
Orbit: 598 x 608 km, 75.0° (Epoch: 08 December)

Event Time Altitude Azimuth Distance (km) Brightness Sun altitude
Exits shadow 01:43:21 16° 356° (N) 1,594 3.9 -34.0°
Drops below altitude 10° 01:44:32 10° 6° (N) 1,972 4.6 -33.8°
Sets 01:47:03 0° 18° (NNE) 2,883 5.7 -33.6°
